Вернуться в каталог

ARIANE 5 DEB

SYLDA

АктивенGTO
NORAD 26109·DEBRIS·🇫🇷 France

Запущен Mar 21, 2000 с Guiana Space Centre

Loading…

TLE

УстаревающийSource: Space-Track

Эпоха: Sep 14, 2026, 05:22 UTC

1 26109U 00016C   26257.22406755  .00000012  00000-0  17510-2 0  9997
2 26109   6.5611 240.9184 7151579 273.4064  14.4772  2.28383679219788

Отслеживайте ARIANE 5 DEB в реальном времени с AllMySat

Download on the App Store